Sidney, NE

11:01 AM MDT on March 28, 2017 (GMT -0600)
Sidney Municipal

Weather History for KSNY - May, 2012

Change the Weather History Date:

Saturday, May 19, 2012

  Actual Average Record
Temperature  
Mean Temperature 48 °F 58 °F  
Max Temperature 60 °F 72 °F 96 °F (2009)
Min Temperature 35 °F 45 °F 29 °F (1981)
Degree Days  
Heating Degree Days 17 7  
Month to date heating degree days 135 183  
Since 1 July heating degree days 5542 6095  
Cooling Degree Days 0 1  
Month to date cooling degree days 20 10  
Year to date cooling degree days 27 11  
Moisture  
Dew Point 44 °F    
Average Humidity 70    
Maximum Humidity 89    
Minimum Humidity 51    
Precipitation  
Precipitation T in 0.10 in 1.26 in (2011)
Month to date precipitation 0.19 1.82  
Year to date precipitation 2.32 5.49  
Sea Level Pressure  
Sea Level Pressure 29.94 in    
Wind  
Wind Speed 13 mph (North)    
Max Wind Speed 29 mph    
Max Gust Speed 36 mph    
Visibility 10 miles    
Events Rain    
T = Trace of Precipitation, MM = Missing Value Source: NWS Daily Summary

Daily Weather History Graph

Daily Weather History Graph

Search for Another Location

Airport or City:

Trip Planner

Search our weather history database for the weather conditions in past years. The results will help you decide how hot, cold, wet, or windy it might be!

Date:

Astronomy

May. 19, 2012 Rise Set
Actual Time 5:29 AM MDT 8:07 PM MDT
Civil Twilight 4:58 AM MDT 8:39 PM MDT
Nautical Twilight 4:18 AM MDT 9:19 PM MDT
Astronomical Twilight 3:33 AM MDT 10:04 PM MDT
Moon 4:34 AM MDT (5/19) 7:14 PM MDT (5/19)
Length of Visible Light 15h 41m
Length of Day
14h 37m
Waning Crescent, 1% of the Moon is Illuminated
May 19
Waning Crescent
May 20
New
May 28
First Quarter
Jun 4
Full
Jun 11
Last Quarter

Hourly Weather History & Observations

Time (MDT) Temp. Windchill Dew Point Humidity Pressure Visibility Wind Dir Wind Speed Gust Speed Precip Events Conditions
12:53 AM 59.0 °F - 51.1 °F 75% 29.61 in 10.0 mi North 16.1 mph 24.2 mph N/A   Clear
1:53 AM 57.9 °F - 48.9 °F 72% 29.62 in 10.0 mi North 19.6 mph 27.6 mph N/A   Clear
2:53 AM 57.0 °F - 46.9 °F 69% 29.66 in 10.0 mi NNW 15.0 mph - N/A   Scattered Clouds
3:33 AM 55.4 °F - 48.2 °F 77% 29.84 in 10.0 mi NNW 18.4 mph 29.9 mph N/A   Mostly Cloudy
3:53 AM 55.9 °F - 48.0 °F 75% 29.70 in 10.0 mi North 16.1 mph 24.2 mph N/A   Overcast
4:35 AM 55.4 °F - 46.4 °F 72% 29.87 in 10.0 mi NNW 17.3 mph 26.5 mph N/A   Overcast
4:53 AM 54.0 °F - 46.0 °F 75% 29.74 in 10.0 mi NNW 18.4 mph - N/A   Overcast
5:42 AM 53.6 °F - 46.4 °F 77% 29.90 in 10.0 mi North 17.3 mph - 0.00 in   Mostly Cloudy
5:53 AM 54.0 °F - 46.9 °F 77% 29.77 in 10.0 mi North 19.6 mph 24.2 mph 0.00 in   Overcast
6:53 AM 54.0 °F - 46.0 °F 75% 29.82 in 10.0 mi NNW 18.4 mph 26.5 mph N/A   Overcast
7:19 AM 53.6 °F - 46.4 °F 77% 29.95 in 10.0 mi North 17.3 mph - N/A   Overcast
7:50 AM 53.6 °F - 46.4 °F 77% 29.95 in 10.0 mi NNW 20.7 mph 27.6 mph N/A   Overcast
7:53 AM 54.0 °F - 46.0 °F 75% 29.85 in 10.0 mi North 18.4 mph 27.6 mph N/A   Overcast
8:53 AM 54.0 °F - 45.0 °F 72% 29.90 in 10.0 mi North 18.4 mph 27.6 mph N/A   Overcast
9:53 AM 54.0 °F - 44.1 °F 69% 29.93 in 10.0 mi North 19.6 mph 25.3 mph 0.00 in   Overcast
10:53 AM 57.9 °F - 39.9 °F 51% 29.91 in 10.0 mi North 23.0 mph 35.7 mph N/A   Mostly Cloudy
11:01 AM 57.2 °F - 39.2 °F 51% 30.02 in 10.0 mi North 23.0 mph 31.1 mph N/A   Mostly Cloudy
11:53 AM 57.9 °F - 44.1 °F 60% 29.94 in 10.0 mi North 19.6 mph 23.0 mph N/A   Mostly Cloudy
12:11 PM 57.2 °F - 42.8 °F 59% 30.04 in 10.0 mi NNW 16.1 mph 24.2 mph N/A   Overcast
12:18 PM 57.2 °F - 42.8 °F 59% 30.04 in 10.0 mi North 15.0 mph 24.2 mph N/A   Overcast
12:35 PM 57.2 °F - 44.6 °F 63% 30.05 in 10.0 mi NNW 15.0 mph - N/A   Overcast
12:53 PM 57.0 °F - 43.0 °F 59% 29.98 in 10.0 mi NNW 12.7 mph - N/A   Overcast
1:04 PM 55.4 °F - 42.8 °F 63% 30.06 in 10.0 mi NNW 15.0 mph - N/A   Overcast
1:53 PM 55.9 °F - 42.1 °F 60% 30.01 in 10.0 mi North 13.8 mph - N/A   Overcast
2:53 PM 54.0 °F - 45.0 °F 72% 30.03 in 10.0 mi NNE 12.7 mph - 0.00 in Rain Light Rain
3:49 PM 55.4 °F - 44.6 °F 67% 30.10 in 10.0 mi NNE 15.0 mph - 0.00 in   Overcast
3:53 PM 55.0 °F - 45.0 °F 69% 30.03 in 10.0 mi NNE 12.7 mph - 0.00 in   Overcast
4:53 PM 59.0 °F - 43.0 °F 55% 30.02 in 10.0 mi NNE 10.4 mph - N/A   Mostly Cloudy
5:53 PM 59.0 °F - 43.0 °F 55% 30.03 in 10.0 mi NNE 10.4 mph - N/A   Partly Cloudy
6:53 PM 57.9 °F - 43.0 °F 58% 30.04 in 10.0 mi NE 3.5 mph - N/A   Clear
7:53 PM 55.0 °F - 43.0 °F 64% 30.06 in 10.0 mi Calm Calm - N/A   Clear
8:53 PM 44.1 °F - 37.0 °F 76% 30.11 in 10.0 mi Calm Calm - N/A   Clear
9:53 PM 41.0 °F - 37.0 °F 86% 30.13 in 10.0 mi Calm Calm - N/A   Clear
10:53 PM 37.0 °F 33.3 °F 33.1 °F 86% 30.14 in 10.0 mi WSW 4.6 mph - N/A   Clear
11:53 PM 36.0 °F 30.3 °F 32.0 °F 86% 30.15 in 10.0 mi West 6.9 mph - N/A   Clear